Find FUSION 1

NORAD ID: 62674 Int'l Des: NNA 2025-009 Owner: SEIREN Country: J operational
LEOCIRCULARRETROGRADESSO

当前视图

正在加载3D地球...

About FUSION 1

FUSION 1 (NORAD 62674) is a satellite launched Jan 14, 2025 by SEIREN of J. It operates in LEO, CIRCULAR, RETROGRADE, SSO orbit with a mass of 5.00 kg.

即将过境

Passes for default location (London). Set your location on the main map for personalized predictions.

高度历史

Loading altitude history...

两行轨道根数

1 62674U 25009BT 26195.18893197 .00006550 00000-0 22330-3 0 9999
2 62674 97.4063 277.5648 0004363 197.5258 162.5832 15.30695981140692
Epoch: Jul 14, 2026 • Age: 19 hours

当前状态

高度 479.1 km
远地点 / 近地点 N/A
速度 7.62 km/s
星下点 7.29°N, 6.33°W
发射日期 Jan 14, 2025
运行时间 1.4 years
类型 other

技术详情

分类 Payload
质量 5.00 kg
干质量 5.00 kg
总质量 5.00 kg
长度 0.30 m
直径 0.10 m
跨度 0.30 m
形状 Box+2 pan
制造商 SEIREN
平台类型 Cubesat 3U
阶段状态 In Orbit
所有者/国家 SEIREN/J

Most Searched